Time,TemperatureF,DewpointF,PressureIn,WindDirection,WindDirectionDegrees,WindSpeedMPH,WindSpeedGustMPH,Humidity,HourlyPrecipIn,Conditions,Clouds,dailyrainin,SoftwareType,DateUTC
2013-06-16 00:01:00,59.3,47.8,29.15,SSE,158,0.0,0.0,66,0.00,,,0.00,WSDL version 420,2013-06-16 04:01:00,
2013-06-16 00:03:00,59.3,48.0,29.15,SSE,158,0.0,0.0,66,-99.99,,,-99.99,WSDL version 420,2013-06-16 04:03:00,
2013-06-16 00:08:00,59.2,48.4,29.15,SSE,158,0.0,0.0,68,-99.99,,,-99.99,WSDL version 420,2013-06-16 04:08:00,
2013-06-16 00:10:00,59.2,48.5,29.15,SSE,158,0.0,0.0,68,-99.99,,,-99.99,WSDL version 420,2013-06-16 04:10:00,
2013-06-16 00:19:00,59.4,48.8,-100.00,South,173,0.0,0.0,68,0.00,,,0.00,WSDL version 420,2013-06-16 04:19:00,
2013-06-16 00:27:00,59.4,49.2,29.15,South,190,0.0,0.0,69,-99.99,,,-99.99,WSDL version 420,2013-06-16 04:27:00,
2013-06-16 00:33:00,59.5,49.8,29.15,SSW,203,0.0,0.0,70,0.00,,,0.00,WSDL version 420,2013-06-16 04:33:00,
2013-06-16 00:39:00,59.7,50.2,29.15,SSW,203,0.0,0.0,71,0.00,,,0.00,WSDL version 420,2013-06-16 04:39:00,
2013-06-16 00:45:00,60.0,50.7,29.15,SSW,210,0.0,0.0,72,0.00,,,0.00,WSDL version 420,2013-06-16 04:45:00,
2013-06-16 00:51:00,60.4,51.3,29.15,SW,215,0.0,0.0,72,-99.99,,,-99.99,WSDL version 420,2013-06-16 04:51:00,
2013-06-16 00:58:00,60.6,51.6,29.12,SSW,208,0.0,0.0,72,-99.99,,,-99.99,WSDL version 420,2013-06-16 04:58:00,
2013-06-16 01:04:00,60.8,51.5,29.12,SSW,208,0.0,0.0,71,0.00,,,0.00,WSDL version 420,2013-06-16 05:04:00,
2013-06-16 01:10:00,61.0,51.5,29.12,SW,225,0.0,0.0,71,-99.99,,,-99.99,WSDL version 420,2013-06-16 05:10:00,
2013-06-16 01:18:00,61.0,51.5,29.15,SW,225,0.0,0.0,71,0.00,,,0.00,WSDL version 420,2013-06-16 05:18:00,
2013-06-16 01:25:00,61.2,51.7,29.12,SW,221,0.0,0.0,71,0.00,,,0.00,WSDL version 420,2013-06-16 05:25:00,
2013-06-16 01:31:00,61.2,51.6,29.12,SW,221,0.0,0.0,70,-99.99,,,-99.99,WSDL version 420,2013-06-16 05:31:00,
2013-06-16 01:39:00,61.3,51.5,29.12,SW,221,0.0,0.0,70,0.00,,,0.00,WSDL version 420,2013-06-16 05:39:00,
2013-06-16 01:45:00,61.3,51.5,29.12,SW,225,0.0,0.0,70,0.00,,,0.00,WSDL version 420,2013-06-16 05:45:00,
2013-06-16 01:51:00,61.3,51.1,29.12,SW,225,0.0,0.0,69,-99.99,,,-99.99,WSDL version 420,2013-06-16 05:51:00,
2013-06-16 01:58:00,61.3,51.1,29.15,SW,225,0.0,0.0,69,0.00,,,0.00,WSDL version 420,2013-06-16 05:58:00,
2013-06-16 02:04:00,61.3,51.1,29.15,SW,225,0.0,0.0,69,0.00,,,0.00,WSDL version 420,2013-06-16 06:04:00,
2013-06-16 02:10:00,61.2,50.9,29.15,SW,225,0.0,0.0,69,-99.99,,,-99.99,WSDL version 420,2013-06-16 06:10:00,
2013-06-16 02:16:00,61.2,51.2,29.15,SW,225,0.0,0.0,70,-99.99,,,-99.99,WSDL version 420,2013-06-16 06:16:00,
2013-06-16 02:21:00,61.2,51.1,29.15,SW,225,0.0,0.0,69,-99.99,,,-99.99,WSDL version 420,2013-06-16 06:21:00,
2013-06-16 02:27:00,61.2,50.9,29.15,SW,225,0.0,0.0,69,0.00,,,0.00,WSDL version 420,2013-06-16 06:27:00,
2013-06-16 02:33:00,61.3,51.1,29.15,SSW,203,0.0,0.0,69,0.00,,,0.00,WSDL version 420,2013-06-16 06:33:00,
2013-06-16 02:41:00,61.3,50.7,29.15,SW,225,0.0,0.0,68,-99.99,,,-99.99,WSDL version 420,2013-06-16 06:41:00,
2013-06-16 02:47:00,61.3,50.7,-100.00,SW,225,0.0,0.0,68,0.00,,,0.00,WSDL version 420,2013-06-16 06:47:00,
2013-06-16 02:56:00,61.3,50.7,29.12,SW,225,0.0,0.0,68,0.00,,,0.00,WSDL version 420,2013-06-16 06:56:00,
2013-06-16 03:02:00,61.3,50.6,29.12,WSW,248,0.0,0.0,68,0.00,,,0.00,WSDL version 420,2013-06-16 07:02:00,
2013-06-16 03:08:00,61.3,50.3,29.12,WSW,248,0.0,0.0,67,0.00,,,0.00,WSDL version 420,2013-06-16 07:08:00,
2013-06-16 03:14:00,61.5,50.5,29.12,SW,225,0.0,0.0,67,0.00,,,0.00,WSDL version 420,2013-06-16 07:14:00,
2013-06-16 03:20:00,61.5,50.5,29.12,WSW,239,0.0,0.0,67,0.00,,,0.00,WSDL version 420,2013-06-16 07:20:00,
2013-06-16 03:26:00,61.5,50.5,29.12,WSW,248,0.0,0.0,67,0.00,,,0.00,WSDL version 420,2013-06-16 07:26:00,
2013-06-16 03:32:00,61.5,50.5,29.12,SW,225,0.0,0.0,67,0.00,,,0.00,WSDL version 420,2013-06-16 07:32:00,
2013-06-16 03:39:00,61.5,50.5,29.12,SW,225,0.0,0.0,67,0.00,,,0.00,WSDL version 420,2013-06-16 07:39:00,
2013-06-16 03:45:00,61.7,50.4,29.12,SW,225,0.0,0.0,66,0.00,,,0.00,WSDL version 420,2013-06-16 07:45:00,
2013-06-16 03:50:00,61.7,50.2,29.12,SW,225,0.0,0.0,66,0.00,,,0.00,WSDL version 420,2013-06-16 07:50:00,
2013-06-16 03:56:00,61.7,50.2,29.09,SSW,212,0.0,0.0,66,0.00,,,0.00,WSDL version 420,2013-06-16 07:56:00,
2013-06-16 04:02:00,61.5,50.1,29.09,SW,219,0.0,0.0,66,-99.99,,,-99.99,WSDL version 420,2013-06-16 08:02:00,
2013-06-16 04:08:00,61.5,50.3,29.09,SW,225,0.0,0.0,67,0.00,,,0.00,WSDL version 420,2013-06-16 08:08:00,
2013-06-16 04:14:00,61.5,50.5,29.12,SW,222,0.0,0.0,67,0.00,,,0.00,WSDL version 420,2013-06-16 08:14:00,
2013-06-16 04:21:00,61.5,50.7,29.12,SW,225,0.0,0.0,68,0.00,,,0.00,WSDL version 420,2013-06-16 08:21:00,
2013-06-16 04:27:00,61.5,50.9,29.12,SW,222,0.0,0.0,68,0.00,,,0.00,WSDL version 420,2013-06-16 08:27:00,
2013-06-16 04:33:00,61.4,50.9,29.12,SW,236,0.0,0.0,69,0.00,,,0.00,WSDL version 420,2013-06-16 08:33:00,
2013-06-16 04:38:00,61.3,51.1,29.12,SW,215,0.0,0.0,69,-99.99,,,-99.99,WSDL version 420,2013-06-16 08:38:00,
2013-06-16 04:44:00,61.3,51.1,29.09,SW,225,0.0,0.0,69,0.00,,,0.00,WSDL version 420,2013-06-16 08:44:00,
2013-06-16 04:50:00,61.3,51.1,29.09,SW,225,0.0,0.0,69,0.00,,,0.00,WSDL version 420,2013-06-16 08:50:00,
2013-06-16 04:56:00,61.2,51.1,29.09,SW,225,0.0,0.9,70,0.00,,,0.00,WSDL version 420,2013-06-16 08:56:00,
2013-06-16 05:02:00,61.2,51.3,29.09,SW,225,0.0,0.9,70,0.00,,,0.00,WSDL version 420,2013-06-16 09:02:00,
2013-06-16 05:09:00,61.1,51.2,29.09,WSW,244,0.0,0.0,70,0.00,,,0.00,WSDL version 420,2013-06-16 09:09:00,
2013-06-16 05:17:00,61.0,51.1,29.09,SW,225,0.0,0.0,70,0.00,,,0.00,WSDL version 420,2013-06-16 09:17:00,
2013-06-16 05:23:00,61.0,51.3,29.09,SW,231,0.0,0.0,70,0.00,,,0.00,WSDL version 420,2013-06-16 09:23:00,
2013-06-16 05:29:00,61.0,51.1,29.09,WSW,242,0.0,0.0,70,0.00,,,0.00,WSDL version 420,2013-06-16 09:29:00,
2013-06-16 05:35:00,61.1,50.9,29.09,SW,225,0.0,0.0,69,-99.99,,,-99.99,WSDL version 420,2013-06-16 09:35:00,
2013-06-16 05:40:00,61.2,50.9,29.09,SW,225,0.0,0.0,69,0.00,,,0.00,WSDL version 420,2013-06-16 09:40:00,
2013-06-16 05:46:00,61.2,51.3,29.09,SSW,206,0.0,0.0,70,0.00,,,0.00,WSDL version 420,2013-06-16 09:46:00,
2013-06-16 05:52:00,61.3,51.5,29.09,SSW,203,0.0,0.0,70,0.00,,,0.00,WSDL version 420,2013-06-16 09:52:00,
2013-06-16 05:58:00,61.4,51.2,29.06,SW,225,0.0,0.0,69,-99.99,,,-99.99,WSDL version 420,2013-06-16 09:58:00,
2013-06-16 06:04:00,61.5,51.3,29.06,SW,220,0.0,0.0,69,0.00,,,0.00,WSDL version 420,2013-06-16 10:04:00,
2013-06-16 06:10:00,61.7,51.0,29.06,SW,225,0.0,0.0,68,0.00,,,0.00,WSDL version 420,2013-06-16 10:10:00,
2013-06-16 06:16:00,61.7,51.0,29.09,SSW,203,0.0,0.0,68,-99.99,,,-99.99,WSDL version 420,2013-06-16 10:16:00,
2013-06-16 06:22:00,61.7,51.0,29.09,SSW,209,0.0,0.0,68,-99.99,,,-99.99,WSDL version 420,2013-06-16 10:22:00,
2013-06-16 06:30:00,61.9,51.2,29.09,SW,225,0.0,0.0,68,0.00,,,0.00,WSDL version 420,2013-06-16 10:30:00,
2013-06-16 06:36:00,62.1,51.4,29.09,SW,221,0.0,0.0,68,0.00,,,0.00,WSDL version 420,2013-06-16 10:36:00,
2013-06-16 06:42:00,62.2,51.2,29.09,SW,214,0.0,0.0,67,0.00,,,0.00,WSDL version 420,2013-06-16 10:42:00,
2013-06-16 06:48:00,62.5,51.0,29.09,SSW,209,0.0,0.0,66,0.00,,,0.00,WSDL version 420,2013-06-16 10:48:00,
2013-06-16 06:55:00,63.0,51.0,29.09,SW,221,0.0,0.0,65,0.00,,,0.00,WSDL version 420,2013-06-16 10:55:00,
2013-06-16 07:01:00,63.3,51.4,29.09,SW,225,0.0,0.0,65,-99.99,,,-99.99,WSDL version 420,2013-06-16 11:01:00,
2013-06-16 07:08:00,63.8,51.6,29.09,SW,219,0.0,0.0,64,0.00,,,0.00,WSDL version 420,2013-06-16 11:08:00,
2013-06-16 07:14:00,63.9,51.1,29.09,SW,225,0.0,0.0,63,0.00,,,0.00,WSDL version 420,2013-06-16 11:14:00,
2013-06-16 07:20:00,64.0,50.9,29.09,SSW,206,0.0,1.3,62,-99.99,,,-99.99,WSDL version 420,2013-06-16 11:20:00,
2013-06-16 07:25:00,64.1,50.9,29.09,SSW,210,0.0,1.3,62,-99.99,,,-99.99,WSDL version 420,2013-06-16 11:25:00,
2013-06-16 07:31:00,64.0,50.7,29.09,SW,222,0.0,0.0,62,0.00,,,0.00,WSDL version 420,2013-06-16 11:31:00,
2013-06-16 07:37:00,64.0,50.6,29.09,SSW,212,0.3,0.0,62,0.00,,,0.00,WSDL version 420,2013-06-16 11:37:00,
2013-06-16 07:43:00,63.9,50.6,29.09,SW,222,0.4,2.7,62,0.00,,,0.00,WSDL version 420,2013-06-16 11:43:00,
2013-06-16 07:49:00,64.0,51.0,29.09,SW,219,0.2,3.4,63,0.00,,,0.00,WSDL version 420,2013-06-16 11:49:00,
2013-06-16 07:55:00,64.0,51.2,29.06,SW,218,0.6,3.4,63,0.00,,,0.00,WSDL version 420,2013-06-16 11:55:00,
2013-06-16 08:01:00,64.2,51.2,29.06,SSW,196,0.0,3.1,62,0.00,,,0.00,WSDL version 420,2013-06-16 12:01:00,
2013-06-16 08:07:00,64.2,51.2,29.06,SSW,206,0.0,3.1,63,-99.99,,,-99.99,WSDL version 420,2013-06-16 12:07:00,
2013-06-16 08:13:00,64.2,50.9,29.06,SW,219,0.3,2.2,62,0.00,,,0.00,WSDL version 420,2013-06-16 12:13:00,
2013-06-16 08:20:00,64.4,50.7,29.06,SSW,211,0.0,4.5,61,0.00,,,0.00,WSDL version 420,2013-06-16 12:20:00,
2013-06-16 08:26:00,64.6,50.8,-100.00,SW,219,0.0,0.0,60,0.00,,,0.00,WSDL version 420,2013-06-16 12:26:00,
2013-06-16 08:32:00,64.6,50.2,29.03,SSW,209,0.0,0.0,59,0.00,,,0.00,WSDL version 420,2013-06-16 12:32:00,
2013-06-16 08:38:00,64.8,50.1,29.03,SW,225,0.0,0.0,59,0.00,,,0.00,WSDL version 420,2013-06-16 12:38:00,
2013-06-16 08:44:00,64.8,50.1,29.03,SSW,206,0.0,0.9,59,0.00,,,0.00,WSDL version 420,2013-06-16 12:44:00,
2013-06-16 08:50:00,64.9,50.3,-100.00,SSW,203,0.0,0.9,59,0.00,,,0.00,WSDL version 420,2013-06-16 12:50:00,
2013-06-16 08:57:00,65.4,50.7,29.00,SW,222,0.0,0.0,59,0.00,,,0.00,WSDL version 420,2013-06-16 12:57:00,
2013-06-16 09:02:00,65.7,50.5,29.00,SW,214,0.0,0.0,58,0.00,,,0.00,WSDL version 420,2013-06-16 13:02:00,
2013-06-16 09:08:00,65.6,50.2,29.00,SW,225,0.0,0.0,56,0.00,,,0.00,WSDL version 420,2013-06-16 13:08:00,
2013-06-16 09:14:00,65.5,49.7,29.03,SW,214,0.0,0.0,56,0.00,,,0.00,WSDL version 420,2013-06-16 13:14:00,
2013-06-16 09:20:00,65.5,49.3,29.03,WSW,243,0.0,2.2,56,0.00,,,0.00,WSDL version 420,2013-06-16 13:20:00,
2013-06-16 09:25:00,65.8,49.7,29.03,SW,230,0.0,2.2,56,0.00,,,0.00,WSDL version 420,2013-06-16 13:25:00,
2013-06-16 09:31:00,66.0,49.4,29.03,SW,215,0.0,0.0,55,0.00,,,0.00,WSDL version 420,2013-06-16 13:31:00,
2013-06-16 09:37:00,66.2,49.1,29.03,SW,235,0.0,2.2,54,0.00,,,0.00,WSDL version 420,2013-06-16 13:37:00,
2013-06-16 09:43:00,66.2,49.6,29.00,SW,225,0.0,2.2,55,0.00,,,0.00,WSDL version 420,2013-06-16 13:43:00,
2013-06-16 09:53:00,65.8,50.2,29.00,SW,225,0.0,0.0,57,0.00,,,0.00,WSDL version 420,2013-06-16 13:53:00,
2013-06-16 10:03:00,65.8,50.7,29.00,SSW,203,0.0,1.3,58,0.00,,,0.00,WSDL version 420,2013-06-16 14:03:00,
2013-06-16 10:13:00,65.3,51.5,29.00,SSW,203,0.0,2.2,61,-99.99,,,-99.99,WSDL version 420,2013-06-16 14:13:00,
2013-06-16 10:19:00,65.1,51.3,29.00,WSW,239,0.2,2.2,61,0.00,,,0.00,WSDL version 420,2013-06-16 14:19:00,
2013-06-16 10:26:00,64.9,51.2,28.97,SSW,194,0.4,3.4,61,0.00,,,0.00,WSDL version 420,2013-06-16 14:26:00,
2013-06-16 10:33:00,64.8,51.5,28.97,SW,233,0.1,3.1,62,0.00,,,0.00,WSDL version 420,2013-06-16 14:33:00,
2013-06-16 10:39:00,65.0,51.5,28.97,West,274,0.3,3.4,62,0.00,,,0.00,WSDL version 420,2013-06-16 14:39:00,
2013-06-16 10:44:00,65.1,50.9,28.94,SW,221,0.6,3.6,60,-99.99,,,-99.99,WSDL version 420,2013-06-16 14:44:00,
2013-06-16 10:50:00,65.2,51.0,28.94,SW,236,0.0,3.6,60,-99.99,,,-99.99,WSDL version 420,2013-06-16 14:50:00,
2013-06-16 10:56:00,65.4,51.5,28.97,SW,222,0.0,1.1,60,0.00,,,0.00,WSDL version 420,2013-06-16 14:56:00,
2013-06-16 11:01:00,65.7,51.4,28.97,SW,214,0.0,1.1,60,0.00,,,0.00,WSDL version 420,2013-06-16 15:01:00,
2013-06-16 11:07:00,65.8,52.0,-100.00,SW,230,0.0,1.1,61,-99.99,,,-99.99,WSDL version 420,2013-06-16 15:07:00,
2013-06-16 11:16:00,67.1,52.8,28.94,SW,219,0.0,3.4,60,-99.99,,,-99.99,WSDL version 420,2013-06-16 15:16:00,
2013-06-16 11:23:00,67.8,52.5,28.94,WSW,248,0.5,2.9,58,0.00,,,0.00,WSDL version 420,2013-06-16 15:23:00,
2013-06-16 11:29:00,68.4,52.1,28.94,WSW,248,0.7,3.8,56,0.00,,,0.00,WSDL version 420,2013-06-16 15:29:00,
2013-06-16 11:37:00,69.7,53.5,28.94,SW,225,0.0,2.5,56,0.00,,,0.00,WSDL version 420,2013-06-16 15:37:00,
2013-06-16 11:43:00,71.2,54.8,28.94,SW,225,0.0,0.9,56,0.00,,,0.00,WSDL version 420,2013-06-16 15:43:00,
2013-06-16 11:49:00,73.2,54.8,28.94,SW,234,1.0,4.0,51,0.00,,,0.00,WSDL version 420,2013-06-16 15:49:00,
2013-06-16 11:55:00,74.8,55.3,28.94,WSW,244,0.8,4.0,49,0.00,,,0.00,WSDL version 420,2013-06-16 15:55:00,
2013-06-16 12:00:00,73.6,52.1,28.91,WSW,244,1.2,3.8,47,0.00,,,0.00,WSDL version 420,2013-06-16 16:00:00,
2013-06-16 12:06:00,72.9,52.3,28.91,WSW,248,0.2,4.3,49,-99.99,,,-99.99,WSDL version 420,2013-06-16 16:06:00,
2013-06-16 12:13:00,71.9,52.8,28.91,WSW,239,0.2,3.8,51,-99.99,,,-99.99,WSDL version 420,2013-06-16 16:13:00,
2013-06-16 12:22:00,71.6,54.1,28.91,SW,234,0.3,5.6,54,-99.99,,,-99.99,WSDL version 420,2013-06-16 16:22:00,
2013-06-16 12:27:00,71.4,54.9,28.91,SW,233,0.0,5.6,56,0.00,,,0.00,WSDL version 420,2013-06-16 16:27:00,
2013-06-16 12:33:00,71.2,55.2,28.91,SW,233,0.0,2.9,57,0.00,,,0.00,WSDL version 420,2013-06-16 16:33:00,
2013-06-16 12:41:00,70.9,55.9,28.91,WSW,250,0.3,2.5,59,-99.99,,,-99.99,WSDL version 420,2013-06-16 16:41:00,
2013-06-16 12:47:00,70.8,56.2,28.91,West,270,1.1,3.1,60,-99.99,,,-99.99,WSDL version 420,2013-06-16 16:47:00,
2013-06-16 12:55:00,70.9,56.8,28.91,WSW,255,1.0,4.0,61,-99.99,,,-99.99,WSDL version 420,2013-06-16 16:55:00,
2013-06-16 13:01:00,71.1,57.0,28.91,WSW,255,0.2,6.3,61,0.00,,,0.00,WSDL version 420,2013-06-16 17:01:00,
2013-06-16 13:07:00,71.2,57.5,28.91,SW,236,1.0,6.3,62,0.00,,,0.00,WSDL version 420,2013-06-16 17:07:00,
2013-06-16 13:14:00,71.1,57.4,28.88,North,8,0.0,4.7,62,0.00,,,0.00,WSDL version 420,2013-06-16 17:14:00,
2013-06-16 13:20:00,70.9,57.4,28.88,WNW,293,0.6,4.7,63,0.00,,,0.00,WSDL version 420,2013-06-16 17:20:00,
2013-06-16 13:29:00,70.5,58.0,28.91,WSW,257,0.0,0.9,65,0.00,,,0.00,WSDL version 420,2013-06-16 17:29:00,
2013-06-16 13:36:00,70.3,58.0,28.91,SW,236,0.0,1.1,65,0.00,,,0.00,WSDL version 420,2013-06-16 17:36:00,
2013-06-16 13:42:00,70.2,58.1,28.94,NW,309,0.0,0.0,66,-99.99,,,-99.99,WSDL version 420,2013-06-16 17:42:00,
2013-06-16 13:51:00,69.6,59.8,28.94,SW,214,0.2,1.6,71,-99.99,,,-99.99,WSDL version 420,2013-06-16 17:51:00,
2013-06-16 13:58:00,69.6,59.8,28.94,WSW,248,0.0,1.6,71,-99.99,,,-99.99,WSDL version 420,2013-06-16 17:58:00,
2013-06-16 14:05:00,69.8,60.4,28.94,SW,222,0.0,1.3,72,-99.99,,,-99.99,WSDL version 420,2013-06-16 18:05:00,
2013-06-16 14:11:00,69.9,60.0,28.94,SW,225,0.0,0.0,71,0.00,,,0.00,WSDL version 420,2013-06-16 18:11:00,
2013-06-16 14:17:00,69.5,60.1,28.94,SW,225,0.0,0.9,72,-99.99,,,-99.99,WSDL version 420,2013-06-16 18:17:00,
2013-06-16 14:32:00,69.1,60.1,-100.00,WSW,255,0.0,0.9,73,0.00,,,0.00,WSDL version 420,2013-06-16 18:32:00,
2013-06-16 14:38:00,69.3,60.6,28.94,West,266,0.0,0.9,74,0.00,,,0.00,WSDL version 420,2013-06-16 18:38:00,
2013-06-16 14:45:00,69.3,60.6,28.97,WSW,239,0.0,0.0,74,0.00,,,0.00,WSDL version 420,2013-06-16 18:45:00,
2013-06-16 14:50:00,69.4,60.4,28.97,NW,315,0.0,0.0,73,0.00,,,0.00,WSDL version 420,2013-06-16 18:50:00,
2013-06-16 14:55:00,69.7,60.7,28.94,West,281,0.0,0.0,73,0.00,,,0.00,WSDL version 420,2013-06-16 18:55:00,
2013-06-16 15:01:00,70.6,61.4,28.94,WNW,293,0.0,0.0,72,0.00,,,0.00,WSDL version 420,2013-06-16 19:01:00,
2013-06-16 15:07:00,71.1,61.3,28.94,WNW,284,0.0,0.0,71,-99.99,,,-99.99,WSDL version 420,2013-06-16 19:07:00,
2013-06-16 15:16:00,71.6,61.3,28.94,NNE,23,0.0,0.0,70,0.00,,,0.00,WSDL version 420,2013-06-16 19:16:00,
2013-06-16 15:22:00,71.8,61.2,28.94,NW,318,0.5,2.5,69,0.00,,,0.00,WSDL version 420,2013-06-16 19:22:00,
2013-06-16 15:28:00,71.7,60.5,28.97,NNW,332,0.0,2.7,68,0.00,,,0.00,WSDL version 420,2013-06-16 19:28:00,
2013-06-16 15:34:00,71.3,60.3,28.97,NNW,338,0.0,2.9,68,0.00,,,0.00,WSDL version 420,2013-06-16 19:34:00,
2013-06-16 15:40:00,71.2,60.6,28.97,NW,326,0.7,4.3,69,0.00,,,0.00,WSDL version 420,2013-06-16 19:40:00,
2013-06-16 15:46:00,71.4,60.7,28.97,NNW,333,1.3,4.3,69,0.00,,,0.00,WSDL version 420,2013-06-16 19:46:00,
2013-06-16 15:52:00,71.6,60.5,28.97,NW,326,3.4,5.4,68,0.00,,,0.00,WSDL version 420,2013-06-16 19:52:00,
2013-06-16 15:58:00,71.3,60.1,28.97,NW,315,1.1,5.4,68,0.00,,,0.00,WSDL version 420,2013-06-16 19:58:00,
2013-06-16 16:04:00,71.3,60.0,28.97,NW,323,1.6,5.6,67,0.00,,,0.00,WSDL version 420,2013-06-16 20:04:00,
2013-06-16 16:10:00,71.8,60.2,28.97,NW,324,1.3,5.6,67,0.00,,,0.00,WSDL version 420,2013-06-16 20:10:00,
2013-06-16 16:16:00,72.3,60.8,28.97,NW,311,1.7,3.4,67,-99.99,,,-99.99,WSDL version 420,2013-06-16 20:16:00,
2013-06-16 16:22:00,72.6,60.7,28.97,WNW,293,0.0,3.6,66,-99.99,,,-99.99,WSDL version 420,2013-06-16 20:22:00,
2013-06-16 16:28:00,72.8,60.1,28.97,NW,319,1.0,3.6,64,-99.99,,,-99.99,WSDL version 420,2013-06-16 20:28:00,
2013-06-16 16:38:00,73.6,60.2,28.97,NW,315,2.0,6.7,63,0.00,,,0.00,WSDL version 420,2013-06-16 20:38:00,
2013-06-16 16:52:00,74.1,59.8,-100.00,NNW,347,1.8,4.0,61,0.00,,,0.00,WSDL version 420,2013-06-16 20:52:00,
2013-06-16 16:58:00,74.2,59.4,28.94,NW,321,1.7,4.0,60,0.00,,,0.00,WSDL version 420,2013-06-16 20:58:00,
2013-06-16 17:08:00,74.1,58.9,28.94,NNE,18,1.3,3.6,59,0.00,,,0.00,WSDL version 420,2013-06-16 21:08:00,
2013-06-16 17:15:00,74.3,59.5,28.97,NNW,329,0.9,3.6,60,0.00,,,0.00,WSDL version 420,2013-06-16 21:15:00,
2013-06-16 17:21:00,74.2,58.7,28.97,WNW,296,1.3,3.6,59,0.00,,,0.00,WSDL version 420,2013-06-16 21:21:00,
2013-06-16 17:27:00,74.3,58.6,28.94,NNW,328,0.8,3.6,58,0.00,,,0.00,WSDL version 420,2013-06-16 21:27:00,
2013-06-16 17:32:00,74.1,57.8,28.94,WNW,293,1.3,3.8,57,0.00,,,0.00,WSDL version 420,2013-06-16 21:32:00,
2013-06-16 17:39:00,74.3,58.6,28.94,WNW,293,0.8,3.8,58,-99.99,,,-99.99,WSDL version 420,2013-06-16 21:39:00,
2013-06-16 17:46:00,74.3,58.8,28.97,WNW,285,0.0,3.1,59,0.00,,,0.00,WSDL version 420,2013-06-16 21:46:00,
2013-06-16 17:51:00,74.1,59.0,28.97,NNW,345,0.7,3.4,59,0.00,,,0.00,WSDL version 420,2013-06-16 21:51:00,
2013-06-16 17:58:00,74.1,58.9,-100.00,SW,234,1.3,3.4,59,0.00,,,0.00,WSDL version 420,2013-06-16 21:58:00,
2013-06-16 18:04:00,74.1,59.4,28.97,WSW,248,0.7,3.6,60,0.00,,,0.00,WSDL version 420,2013-06-16 22:04:00,
2013-06-16 18:10:00,74.1,58.6,29.00,NNW,329,1.3,4.3,58,0.00,,,0.00,WSDL version 420,2013-06-16 22:10:00,
2013-06-16 18:15:00,74.3,57.4,29.00,NW,326,2.2,4.3,55,0.00,,,0.00,WSDL version 420,2013-06-16 22:15:00,
2013-06-16 18:21:00,74.3,57.8,29.00,North,360,0.4,3.4,57,-99.99,,,-99.99,WSDL version 420,2013-06-16 22:21:00,
2013-06-16 18:28:00,74.3,58.3,29.00,WNW,301,0.9,3.4,58,-99.99,,,-99.99,WSDL version 420,2013-06-16 22:28:00,
2013-06-16 18:34:00,74.2,58.5,29.00,WNW,297,0.7,2.9,58,0.00,,,0.00,WSDL version 420,2013-06-16 22:34:00,
2013-06-16 18:40:00,73.9,58.0,29.00,SW,228,0.4,2.9,57,0.00,,,0.00,WSDL version 420,2013-06-16 22:40:00,
2013-06-16 18:45:00,73.9,58.2,29.00,SW,221,0.0,2.0,58,0.00,,,0.00,WSDL version 420,2013-06-16 22:45:00,
2013-06-16 18:51:00,73.6,58.3,29.00,WSW,251,0.9,3.4,59,0.00,,,0.00,WSDL version 420,2013-06-16 22:51:00,
2013-06-16 18:57:00,73.5,58.3,29.00,NNW,329,0.0,3.4,59,0.00,,,0.00,WSDL version 420,2013-06-16 22:57:00,
2013-06-16 19:03:00,73.4,58.5,29.00,North,349,0.0,2.0,60,-99.99,,,-99.99,WSDL version 420,2013-06-16 23:03:00,
2013-06-16 19:09:00,73.2,58.5,29.00,West,276,0.0,1.1,60,0.00,,,0.00,WSDL version 420,2013-06-16 23:09:00,
2013-06-16 19:15:00,73.0,58.3,29.00,NNW,340,0.0,3.8,60,0.00,,,0.00,WSDL version 420,2013-06-16 23:15:00,
2013-06-16 19:22:00,73.0,58.3,29.00,NNW,338,0.0,0.0,60,-99.99,,,-99.99,WSDL version 420,2013-06-16 23:22:00,
2013-06-16 19:28:00,73.2,58.5,29.00,West,275,0.0,0.0,60,-99.99,,,-99.99,WSDL version 420,2013-06-16 23:28:00,
2013-06-16 19:33:00,73.0,58.3,29.00,West,270,0.0,0.0,60,0.00,,,0.00,WSDL version 420,2013-06-16 23:33:00,
2013-06-16 19:39:00,72.8,58.6,29.00,SW,234,0.0,0.0,61,0.00,,,0.00,WSDL version 420,2013-06-16 23:39:00,
2013-06-16 19:47:00,72.4,58.2,29.00,WSW,239,0.0,0.0,61,0.00,,,0.00,WSDL version 420,2013-06-16 23:47:00,
2013-06-16 19:53:00,72.2,58.2,29.00,SW,218,0.0,0.0,62,0.00,,,0.00,WSDL version 420,2013-06-16 23:53:00,
2013-06-16 19:59:00,71.9,58.2,29.00,WSW,248,0.0,0.0,62,0.00,,,0.00,WSDL version 420,2013-06-16 23:59:00,
2013-06-16 20:05:00,71.8,58.1,29.00,SW,233,0.0,0.0,62,0.00,,,0.00,WSDL version 420,2013-06-17 00:05:00,
2013-06-16 20:10:00,71.6,58.4,29.00,WSW,253,0.0,0.0,63,0.00,,,0.00,WSDL version 420,2013-06-17 00:10:00,
2013-06-16 20:16:00,71.5,58.0,29.03,WSW,248,0.0,0.0,63,0.00,,,0.00,WSDL version 420,2013-06-17 00:16:00,
2013-06-16 20:22:00,71.3,58.1,29.03,WSW,250,0.0,0.0,63,0.00,,,0.00,WSDL version 420,2013-06-17 00:22:00,
2013-06-16 20:28:00,71.1,57.9,29.03,WSW,248,0.0,0.0,63,0.00,,,0.00,WSDL version 420,2013-06-17 00:28:00,
2013-06-16 20:34:00,70.8,57.6,29.03,NNW,338,0.0,0.0,63,0.00,,,0.00,WSDL version 420,2013-06-17 00:34:00,
2013-06-16 20:40:00,70.7,57.6,29.03,NW,326,0.0,0.0,64,0.00,,,0.00,WSDL version 420,2013-06-17 00:40:00,
2013-06-16 20:47:00,70.5,57.6,29.03,NNW,331,0.0,0.0,64,-99.99,,,-99.99,WSDL version 420,2013-06-17 00:47:00,
2013-06-16 20:53:00,70.5,57.8,29.03,NW,323,0.0,0.0,64,0.00,,,0.00,WSDL version 420,2013-06-17 00:53:00,
2013-06-16 20:59:00,70.3,57.6,29.03,WNW,302,0.0,0.0,64,0.00,,,0.00,WSDL version 420,2013-06-17 00:59:00,
2013-06-16 21:04:00,70.1,57.3,29.03,WSW,239,0.0,0.0,64,0.00,,,0.00,WSDL version 420,2013-06-17 01:04:00,
2013-06-16 21:10:00,70.0,57.3,29.03,North,360,0.0,0.0,64,-99.99,,,-99.99,WSDL version 420,2013-06-17 01:10:00,
2013-06-16 21:16:00,69.8,57.1,29.03,WSW,255,0.0,0.0,64,-99.99,,,-99.99,WSDL version 420,2013-06-17 01:16:00,
2013-06-16 21:21:00,69.6,57.3,29.03,NW,309,0.0,0.0,65,0.00,,,0.00,WSDL version 420,2013-06-17 01:21:00,
2013-06-16 21:35:00,69.6,57.3,29.03,NW,308,0.0,2.2,65,0.00,,,0.00,WSDL version 420,2013-06-17 01:35:00,
2013-06-16 21:41:00,69.4,57.2,29.03,WNW,300,0.0,0.0,65,0.00,,,0.00,WSDL version 420,2013-06-17 01:41:00,
2013-06-16 21:48:00,69.3,57.0,29.03,NW,309,0.0,0.0,65,-99.99,,,-99.99,WSDL version 420,2013-06-17 01:48:00,
2013-06-16 21:54:00,69.3,57.0,29.03,WNW,299,0.0,0.9,65,-99.99,,,-99.99,WSDL version 420,2013-06-17 01:54:00,
2013-06-16 22:00:00,69.3,57.4,29.03,NW,318,0.0,0.9,66,0.00,,,0.00,WSDL version 420,2013-06-17 02:00:00,
2013-06-16 22:06:00,69.3,57.4,29.03,WNW,285,0.0,2.7,66,0.00,,,0.00,WSDL version 420,2013-06-17 02:06:00,
2013-06-16 22:15:00,69.2,57.3,29.03,NW,311,0.0,0.0,66,0.00,,,0.00,WSDL version 420,2013-06-17 02:15:00,
2013-06-16 22:21:00,69.1,57.3,29.03,NW,318,0.0,0.0,66,0.00,,,0.00,WSDL version 420,2013-06-17 02:21:00,
2013-06-16 22:27:00,68.9,57.1,29.03,NW,320,0.0,0.0,66,0.00,,,0.00,WSDL version 420,2013-06-17 02:27:00,
2013-06-16 22:34:00,68.9,57.1,29.03,NW,323,0.0,0.0,66,0.00,,,0.00,WSDL version 420,2013-06-17 02:34:00,
2013-06-16 22:39:00,68.7,56.9,29.03,WNW,296,0.0,0.0,66,0.00,,,0.00,WSDL version 420,2013-06-17 02:39:00,
2013-06-16 22:47:00,68.5,57.2,29.03,NW,315,0.0,0.0,67,0.00,,,0.00,WSDL version 420,2013-06-17 02:47:00,
2013-06-16 22:53:00,68.5,57.2,-100.00,NW,315,0.0,0.0,67,0.00,,,0.00,WSDL version 420,2013-06-17 02:53:00,
2013-06-16 23:01:00,68.4,57.0,29.03,NW,315,0.0,0.0,67,0.00,,,0.00,WSDL version 420,2013-06-17 03:01:00,
2013-06-16 23:07:00,68.4,57.0,29.03,WNW,298,0.0,1.1,67,0.00,,,0.00,WSDL version 420,2013-06-17 03:07:00,
2013-06-16 23:13:00,68.2,56.8,29.00,NW,304,0.0,0.0,67,0.00,,,0.00,WSDL version 420,2013-06-17 03:13:00,
2013-06-16 23:19:00,68.0,56.6,29.00,NW,311,0.0,0.0,67,0.00,,,0.00,WSDL version 420,2013-06-17 03:19:00,
2013-06-16 23:25:00,67.8,56.9,29.03,NNW,333,0.0,0.0,68,0.00,,,0.00,WSDL version 420,2013-06-17 03:25:00,
2013-06-16 23:30:00,67.8,56.9,29.03,NNW,338,0.0,0.0,68,0.00,,,0.00,WSDL version 420,2013-06-17 03:30:00,
2013-06-16 23:36:00,67.8,56.9,29.03,NW,315,0.0,0.0,68,0.00,,,0.00,WSDL version 420,2013-06-17 03:36:00,
2013-06-16 23:42:00,67.6,56.7,29.03,NW,324,0.0,0.0,68,0.00,,,0.00,WSDL version 420,2013-06-17 03:42:00,
2013-06-16 23:50:00,67.6,56.6,29.03,NW,315,0.0,0.0,68,0.00,,,0.00,WSDL version 420,2013-06-17 03:50:00,
2013-06-16 23:56:00,67.5,56.7,29.03,NNW,330,0.0,0.0,69,0.00,,,0.00,WSDL version 420,2013-06-17 03:56:00,